Orbital Elements at Epoch 2459000.5 (2020-May-31.0) TDB
Reference: JPL 8 (heliocentric ecliptic J2000)
Element | Value | Uncertainty (1-sigma) | Units |
e | .2461715684782104 | 1.0206e-07 | |
a | 2.722005391195305 | 2.5018e-08 | au |
q | 2.051925054638612 | 2.7635e-07 | au |
i | 3.567370364734532 | 1.3981e-05 | deg |
node | 342.501739099834 | 0.00010037 | deg |
peri | 226.493750707065 | 0.00010353 | deg |
M | 276.5795850723651 | 2.3627e-05 | deg |
tp | 2459380.603390337036 (2021-Jun-15.10339034) | 0.0001103 | TDB |
period | 1640.332532990106 4.49 | 2.2614e-05 6.191e-08 | d yr |
n | .2194676949702194 | 3.0257e-09 | deg/d |
Q | 3.392085727751998 | 3.1177e-08 | au |
|
| | Orbit Determination Parameters
Additional Information
|